This is the latest recevied weather packets stored in our database for station/object KD4EG. If no packets are shown the sender has not sent any weather packets the latest 10 day(s).
| Time | Temp. | Humidity | Pressure | Rain* | Wind** | Luminosity | Snow |
|---|---|---|---|---|---|---|---|
| 1777771615 | 9.44° C | 58% | 1016.7 hPa | 0 mm | - | 0 W/m² | - |
| 1777771313 | 9.44° C | 57% | 1016.8 hPa | 0 mm | - | 0 W/m² | - |
| 1777771009 | 9.44° C | 56% | 1016.7 hPa | 0 mm | - | 0 W/m² | - |
| 1777770706 | 10° C | 53% | 1016.8 hPa | 0 mm | - | 0 W/m² | - |
| 1777770402 | 10° C | 55% | 1016.8 hPa | 0 mm | - | 0 W/m² | - |
| 1777770099 | 10° C | 53% | 1016.7 hPa | 0 mm | - | 0 W/m² | - |
| 1777769797 | 10° C | 52% | 1016.6 hPa | 0 mm | - | 0 W/m² | - |
| 1777769494 | 10.56° C | 51% | 1016.6 hPa | 0 mm | - | 0 W/m² | - |
| 1777769190 | 10.56° C | 50% | 1016.4 hPa | 0 mm | - | 0 W/m² | - |
| 1777768889 | 11.11° C | 48% | 1016.5 hPa | 0 mm | - | 0 W/m² | - |
| 1777768585 | 11.11° C | 47% | 1016.3 hPa | 0 mm | - | 0 W/m² | - |
| 1777768282 | 11.11° C | 46% | 1016.3 hPa | 0 mm | - | 0 W/m² | - |
| 1777767979 | 11.11° C | 48% | 1016.3 hPa | 0 mm | - | 0 W/m² | - |
| 1777767675 | 11.11° C | 48% | 1016.3 hPa | 0 mm | - | 0 W/m² | - |
| 1777767372 | 11.11° C | 47% | 1016 hPa | 0 mm | - | 0 W/m² | - |
| 1777767069 | 11.11° C | 49% | 1015.9 hPa | 0 mm | - | 2 W/m² | - |
| 1777766766 | 11.67° C | 48% | 1015.9 hPa | 0 mm | - | 3 W/m² | - |
| 1777766464 | 11.67° C | 46% | 1016.2 hPa | 0 mm | - | 6 W/m² | - |
| 1777766160 | 11.67° C | 48% | 1015.8 hPa | 0 mm | - | 8 W/m² | - |
| 1777765858 | 11.67° C | 46% | 1015.5 hPa | 0 mm | - | 12 W/m² | - |
| 1777765554 | 12.22° C | 47% | 1015.7 hPa | 0 mm | - | 16 W/m² | - |
| 1777765252 | 12.22° C | 46% | 1015.7 hPa | 0 mm | - | 18 W/m² | - |
| 1777764952 | 12.22° C | 44% | 1015.5 hPa | 0 mm | - | 20 W/m² | - |
| 1777764649 | 12.78° C | 44% | 1015.5 hPa | 0 mm | - | 25 W/m² | - |
| 1777764345 | 12.78° C | 44% | 1015.5 hPa | 0 mm | - | 37 W/m² | - |
* Rain latest hour (hover to see other rain measurements)
** Current wind speed in m/s (hover to see current wind gust speed)